Hutchinson, KS

8:03 PM CDT on April 24, 2017 (GMT -0500)
Hutchinson Municipal

Weather History for KHUT - July, 2013

Change the Weather History Date:

Friday, July 26, 2013

  Actual Average Record
Temperature  
Mean Temperature 74 °F -  
Max Temperature 86 °F 90 °F 107 °F (2002)
Min Temperature 64 °F 66 °F 48 °F (2004)
Cooling Degree Days 9    
Growing Degree Days 24 (Base 50)    
Moisture  
Dew Point 64 °F    
Average Humidity 76    
Maximum Humidity 94    
Minimum Humidity 43    
Precipitation  
Precipitation 0.19 in - - ()
Sea Level Pressure  
Sea Level Pressure 30.04 in    
Wind  
Wind Speed 11 mph (North)    
Max Wind Speed 24 mph    
Max Gust Speed 30 mph    
Visibility 9 miles    
Events Rain , Thunderstorm    
Averages and records for this station are not official NWS values.
T = Trace of Precipitation, MM = Missing Value Source: NWS Daily Summary

Daily Weather History Graph

Daily Weather History Graph

Search for Another Location

Airport or City:

Trip Planner

Search our weather history database for the weather conditions in past years. The results will help you decide how hot, cold, wet, or windy it might be!

Date:

Astronomy

Jul. 26, 2013 Rise Set
Actual Time 6:29 AM CDT 8:45 PM CDT
Civil Twilight 5:59 AM CDT 9:15 PM CDT
Nautical Twilight 5:23 AM CDT 9:52 PM CDT
Astronomical Twilight 4:43 AM CDT 10:31 PM CDT
Moon 11:06 PM CDT (7/26) 11:01 AM CDT (7/26)
Length of Visible Light 15h 15m
Length of Day
14h 16m
Waning Gibbous, 80% of the Moon is Illuminated
Jul 26
Waning Gibbous
Jul 29
Last Quarter
Aug 6
New
Aug 14
First Quarter
Aug 20
Full

Hourly Weather History & Observations

Time (CDT) Temp. Heat Index Dew Point Humidity Pressure Visibility Wind Dir Wind Speed Gust Speed Precip Events Conditions
12:20 AM 71.6 °F - 66.2 °F 83% 30.08 in 6.0 mi North 11.5 mph 19.6 mph 0.00 in Rain Light Rain
12:23 AM 69.8 °F - 66.2 °F 88% 30.08 in 7.0 mi North 11.5 mph 19.6 mph 0.00 in Rain , Thunderstorm Rain
12:36 AM 69.8 °F - 64.4 °F 83% 30.08 in 10.0 mi North 19.6 mph 27.6 mph N/A Rain , Thunderstorm Light Rain
12:52 AM 66.9 °F - 64.0 °F 90% 30.01 in 1.8 mi North 24.2 mph 29.9 mph N/A Rain Heavy Rain
12:57 AM 66.2 °F - 64.4 °F 94% 30.08 in 2.0 mi North 18.4 mph 29.9 mph 0.02 in Rain Heavy Rain
1:05 AM 66.2 °F - 64.4 °F 94% 30.07 in 3.0 mi North 16.1 mph 27.6 mph 0.09 in Rain Heavy Rain
1:12 AM 66.2 °F - 64.4 °F 94% 30.07 in 2.5 mi North 16.1 mph 27.6 mph 0.12 in Rain Heavy Rain
1:52 AM 66.9 °F - 64.0 °F 90% 29.99 in 7.0 mi NNE 9.2 mph - 0.18 in Rain Rain
2:52 AM 66.9 °F - 64.0 °F 90% 29.96 in 10.0 mi NE 8.1 mph - 0.01 in Rain Light Rain
3:52 AM 66.0 °F - 63.0 °F 90% 29.95 in 10.0 mi ENE 5.8 mph - N/A   Mostly Cloudy
4:52 AM 64.9 °F - 63.0 °F 93% 29.98 in 10.0 mi Calm Calm - N/A   Partly Cloudy
5:52 AM 64.9 °F - 62.1 °F 90% 29.99 in 10.0 mi Calm Calm - N/A   Mostly Cloudy
6:52 AM 66.0 °F - 63.0 °F 90% 30.00 in 10.0 mi NNW 4.6 mph - N/A   Clear
7:08 AM 66.2 °F - 64.4 °F 94% 30.06 in 8.0 mi NNW 6.9 mph - N/A   Scattered Clouds
7:17 AM 66.2 °F - 64.4 °F 94% 30.07 in 6.0 mi NNW 4.6 mph - N/A   Mostly Cloudy
7:52 AM 66.9 °F - 64.0 °F 90% 30.01 in 10.0 mi WNW 4.6 mph - N/A   Overcast
8:44 AM 69.8 °F - 64.4 °F 83% 30.08 in 10.0 mi WNW 4.6 mph - N/A   Scattered Clouds
8:52 AM 70.0 °F - 66.0 °F 87% 30.03 in 10.0 mi Variable 3.5 mph - N/A   Partly Cloudy
9:52 AM 75.9 °F - 66.9 °F 74% 30.03 in 10.0 mi North 9.2 mph - N/A   Mostly Cloudy
10:15 AM 73.4 °F - 66.2 °F 78% 30.09 in 10.0 mi North 10.4 mph - N/A   Scattered Clouds
10:42 AM 77.0 °F - 66.2 °F 69% 30.10 in 10.0 mi North 9.2 mph - N/A   Mostly Cloudy
10:52 AM 77.0 °F - 66.0 °F 69% 30.03 in 10.0 mi North 11.5 mph - N/A   Mostly Cloudy
11:52 AM 75.9 °F - 66.0 °F 71% 30.04 in 10.0 mi North 13.8 mph 19.6 mph N/A   Mostly Cloudy
12:52 PM 79.0 °F - 66.9 °F 66% 30.05 in 10.0 mi North 15.0 mph 21.9 mph N/A   Overcast
1:35 PM 80.6 °F 82.7 °F 66.2 °F 61% 30.10 in 10.0 mi NNE 12.7 mph 21.9 mph N/A   Scattered Clouds
1:52 PM 81.0 °F 83.8 °F 68.0 °F 65% 30.04 in 10.0 mi NNE 13.8 mph 24.2 mph N/A   Scattered Clouds
2:52 PM 82.9 °F 85.0 °F 66.0 °F 56% 30.03 in 10.0 mi NNE 10.4 mph 20.7 mph N/A   Mostly Cloudy
3:52 PM 84.0 °F 85.4 °F 64.0 °F 51% 30.02 in 10.0 mi NE 13.8 mph - N/A   Mostly Cloudy
4:52 PM 84.9 °F 85.9 °F 63.0 °F 48% 30.01 in 10.0 mi NE 11.5 mph 18.4 mph N/A   Scattered Clouds
5:52 PM 84.9 °F 84.8 °F 60.1 °F 43% 30.02 in 10.0 mi NNE 8.1 mph 20.7 mph N/A   Scattered Clouds
6:52 PM 84.9 °F 85.0 °F 61.0 °F 44% 30.02 in 10.0 mi NNE 3.5 mph - N/A   Scattered Clouds
7:52 PM 82.0 °F 83.0 °F 62.1 °F 51% 30.02 in 10.0 mi NNE 3.5 mph - N/A   Clear
8:52 PM 73.9 °F - 62.1 °F 66% 30.04 in 10.0 mi North 5.8 mph - N/A   Clear
9:52 PM 72.0 °F - 62.1 °F 71% 30.05 in 10.0 mi North 5.8 mph - N/A   Clear
10:52 PM 71.1 °F - 62.1 °F 73% 30.06 in 10.0 mi North 6.9 mph - N/A   Clear
11:52 PM 70.0 °F - 61.0 °F 73% 30.07 in 10.0 mi NNE 8.1 mph - N/A   Clear